Buffalo, NY

8:48 AM EST on November 15, 2019 (GMT -0500)
Buffalo Niagara International

Weather History for KBUF - September, 2019

Change the Weather History Date:

Saturday, September 28, 2019

  Actual Average Record
Temperature  
Mean Temperature 65 °F 57 °F  
Max Temperature 72 °F 66 °F 90 °F (1946)
Min Temperature 58 °F 49 °F 32 °F (1957)
Degree Days  
Heating Degree Days 0 8  
Month to date heating degree days 29 118  
Since 1 July heating degree days 32 145  
Cooling Degree Days 0 1  
Month to date cooling degree days 52 53  
Year to date cooling degree days 597 540  
Growing Degree Days 16 (Base 50)    
Moisture  
Dew Point 60 °F    
Average Humidity 73    
Maximum Humidity 97    
Minimum Humidity 49    
Precipitation  
Precipitation 0.18 in 0.14 in 3.55 in (2009)
Month to date precipitation 6.22 3.62  
Year to date precipitation 34.59 28.78  
Snow  
Snow 0.00 in 0.00 in 0.00 in ()
Month to date snowfall 0.0 0.0  
Since 1 July snowfall 0.0 0.0  
Since 1 September snowfall 0.0 0.0  
Snow Depth 0.00 in    
Sea Level Pressure  
Sea Level Pressure 30.03 in    
Wind  
Wind Speed 9 mph (West)    
Max Wind Speed 20 mph    
Max Gust Speed 24 mph    
Visibility 9 miles    
Events Rain    
T = Trace of Precipitation, MM = Missing Value Source: NWS Daily Summary

Daily Weather History Graph

Daily Weather History Graph

Search for Another Location

Airport or City:

Astronomy

Sep. 28, 2019 Rise Set
Actual Time 7:08 AM EDT 7:01 PM EDT
Civil Twilight 6:40 AM EDT 7:30 PM EDT
Nautical Twilight 6:07 AM EDT 8:03 PM EDT
Astronomical Twilight 5:33 AM EDT 8:36 PM EDT
Moon 6:40 AM EDT (9/28) 7:27 PM EDT (9/28)
Length of Visible Light 12h 49m
Length of Day
11h 53m
Waning Crescent, 0% of the Moon is Illuminated
Sep 28
Waning Crescent
Sep 28
New
Oct 5
First Quarter
Oct 13
Full
Oct 21
Last Quarter

Hourly Weather History & Observations

Time (EDT) Temp. Dew Point Humidity Pressure Visibility Wind Dir Wind Speed Gust Speed Precip Events Conditions
12:54 AM 72.0 °F 51.1 °F 48% 29.86 in 10.0 mi South 15.0 mph - N/A   Mostly Cloudy
1:54 AM 72.0 °F 53.1 °F 51% 29.87 in 10.0 mi SSW 11.5 mph - N/A   Mostly Cloudy
2:54 AM 70.0 °F 54.0 °F 57% 29.88 in 10.0 mi SW 9.2 mph - N/A   Overcast
3:54 AM 69.1 °F 55.9 °F 63% 29.89 in 10.0 mi West 5.8 mph - 0.00 in   Overcast
4:54 AM 68.0 °F 55.9 °F 65% 29.92 in 10.0 mi SW 6.9 mph - N/A   Overcast
5:54 AM 63.0 °F 61.0 °F 93% 29.95 in 7.0 mi SSW 8.1 mph - 0.10 in Rain Light Rain
6:54 AM 63.0 °F 61.0 °F 93% 29.92 in 10.0 mi SSE 9.2 mph - 0.02 in   Overcast
7:54 AM 62.1 °F 61.0 °F 96% 29.92 in 10.0 mi South 5.8 mph - N/A   Mostly Cloudy
8:54 AM 66.0 °F 62.1 °F 87% 29.96 in 10.0 mi SW 5.8 mph - N/A   Mostly Cloudy
9:54 AM 69.1 °F 62.1 °F 78% 29.97 in 10.0 mi SW 8.1 mph - N/A   Mostly Cloudy
10:54 AM 69.1 °F 62.1 °F 78% 29.99 in 10.0 mi SW 9.2 mph - N/A   Mostly Cloudy
11:54 AM 69.1 °F 63.0 °F 81% 30.00 in 10.0 mi SW 12.7 mph - N/A   Mostly Cloudy
12:54 PM 72.0 °F 64.0 °F 76% 30.01 in 10.0 mi SW 12.7 mph 20.7 mph N/A   Mostly Cloudy
1:54 PM 71.1 °F 63.0 °F 75% 30.01 in 10.0 mi WSW 17.3 mph - N/A   Mostly Cloudy
2:54 PM 71.1 °F 63.0 °F 75% 30.02 in 10.0 mi SW 17.3 mph - N/A   Mostly Cloudy
3:54 PM 69.1 °F 64.0 °F 84% 30.04 in 10.0 mi WSW 12.7 mph - N/A   Overcast
4:54 PM 68.0 °F 64.9 °F 90% 30.05 in 8.0 mi WSW 8.1 mph - 0.00 in Rain Light Rain
5:20 PM 68.0 °F 64.9 °F 90% 30.07 in 7.0 mi West 10.4 mph - 0.01 in Rain Light Rain
5:26 PM 66.9 °F 64.9 °F 93% 30.08 in 2.5 mi NW 11.5 mph - 0.02 in Rain Light Rain
5:32 PM 66.0 °F 64.9 °F 96% 30.08 in 3.0 mi NW 9.2 mph - 0.03 in Rain Light Rain
5:54 PM 64.0 °F 63.0 °F 96% 30.10 in 5.0 mi NW 10.4 mph - 0.05 in Rain Light Rain
6:54 PM 61.0 °F 60.1 °F 97% 30.13 in 4.0 mi North 9.2 mph - 0.01 in Rain Light Rain
7:31 PM 61.0 °F 60.1 °F 97% 30.14 in 10.0 mi North 6.9 mph - 0.00 in   Mostly Cloudy
7:42 PM 61.0 °F 60.1 °F 97% 30.14 in 9.0 mi NNW 4.6 mph - 0.00 in   Mostly Cloudy
7:54 PM 61.0 °F 60.1 °F 97% 30.15 in 10.0 mi North 4.6 mph - 0.00 in   Mostly Cloudy
8:54 PM 62.1 °F 60.1 °F 93% 30.18 in 10.0 mi NNW 5.8 mph - N/A   Mostly Cloudy
9:54 PM 61.0 °F 59.0 °F 93% 30.20 in 10.0 mi NNW 6.9 mph - N/A   Mostly Cloudy
10:54 PM 60.1 °F 57.9 °F 93% 30.22 in 10.0 mi North 5.8 mph - N/A   Mostly Cloudy
11:54 PM 59.0 °F 57.0 °F 93% 30.25 in 10.0 mi NNW 6.9 mph - N/A   Mostly Cloudy